Weather in Yangju

South Korea     37°48′31″N   127°01′06″E
temp.,
°C
wind,
m/s
gust,
m/s
humid.,
%
clouds,
%
prec.,
mm/h
press.,
hPa
HPBL,
m
2 july, sat
sat200:00+24sse0085100 0.0 101513
03:00+23ne0189100 0.0 101511
06:00+23e118982 0.0 101427
09:00+28ese126787 0.0 1014540
12:00+31sw235255 0.0 10141454
15:00+33wsw234027 0.0 10111922
18:00+31wsw33480 0.0 1010791
21:00+27nw22692 0.0 1011160
3 july, sun
sun300:00+25nw11750 0.0 101243
03:00+24nw11772 0.0 101116
06:00+24n11794 0.0 101123
09:00+28wnw00534 0.0 1011555
12:00+32wnw114227 0.0 10091278
15:00+34wnw323849 0.0 10072096
18:00+31nw4452100 0.0 10071090
21:00+27wnw1263100 0.0 1008231
4 july, mon
mon400:00+26wsw116682 0.0 100885
03:00+25wnw1168100 0.0 100832
06:00+24w017182 0.0 100845
09:00+28nw115632 0.0 1008690
12:00+32nw114486 0.0 10071284
15:00+33nw324172 0.0 10051975
18:00+32n435128 0.0 10041270
21:00+28nnw236564 0.0 1006291
5 july, tue
tue500:00+27nne117111 0.0 100666
03:00+26ene117597 0.0 100531
06:00+25ese117828 0.0 100668
09:00+29ne11635 0.0 1005657
12:00+34ne124760 0.0 10041794
15:00+33nw115073 0.1 1002904
18:00+30nne236581 0.4 1003357
21:00+28e1176100 1.5 100429
6 july, wed
wed600:00+26ssw1182100 1.7 100517
03:00+25ne1188100 1.8 100450
06:00+24e128894 0.3 1005112
09:00+27ese356797 0.3 1006707
12:00+30ese3456100 0.1 10051441
15:00+28ssw137387 0.8 1005235
18:00+25wnw1187100 4.5 1005124
21:00+25e1190100 6.6 100647